Overview Statistics Trail Chart Weather Telemetry Raw packets
 

This is the latest recevied weather packets stored in our database for station/object SP4MGL-10. If no packets are shown the sender has not sent any weather packets the latest 10 day(s).

<< 18 19 20 21 22 23 24 >>
Time Temp. Humidity Pressure Rain* Wind** Luminosity Snow
1788037382 15.56° C 96% 1015.7 hPa - - - -
1788036480 15.56° C 95% 1015.7 hPa - - - -
1788035580 15.56° C 96% 1015.5 hPa - - - -
1788034680 15.56° C 96% 1015.5 hPa - - - -
1788033780 16.11° C 96% 1015.5 hPa - - - -
1788032880 16.11° C 95% 1015.4 hPa - - - -
1788031980 16.11° C 95% 1015.4 hPa - - - -
1788031080 16.67° C 93% 1015.3 hPa - - - -
1788030179 16.67° C 92% 1015.2 hPa - - - -
1788029279 17.22° C 92% 1015.2 hPa - - - -
1788028379 18.33° C 90% 1015 hPa - - - -
1788027673 18.89° C 88% 1014.9 hPa - - - -
1788025703 18.89° C 87% 1014.6 hPa - - - -
1788024803 19.44° C 85% 1014.5 hPa - - - -
1788023902 20° C 83% 1014.5 hPa - - - -
1788023002 21.11° C 80% 1014.2 hPa - - - -
1788022102 21.67° C 78% 1014.2 hPa - - - -
1788021202 21.67° C 77% 1014.3 hPa - - - -
1788020302 20.56° C 82% 1014.2 hPa - - - -
1788019402 20° C 84% 1014.3 hPa - - - -
1788018501 20° C 82% 1014.2 hPa - - - -
1788017601 20° C 81% 1014.1 hPa - - - -
1788016701 20° C 77% 1014.2 hPa - - - -
1788015801 20.56° C 71% 1014.2 hPa - - - -
1788014900 20.56° C 73% 1014 hPa - - - -

* Rain since midnight (hover to see other rain measurements)
** Current wind speed in m/s (hover to see current wind gust speed)